Location: Fontevrault
(47.1823°N, 0.0493°E)
Time: 18:37:12
(UTC+00:00)

Cosmos 1725 Rocket - Pass Details

Date: 24 October 2021
Orbit: 961 x 991 km, 82.9° (Epoch: 27 November)

Event Time Altitude Azimuth Distance (km) Brightness Sun altitude
Exits shadow 21:14:27 19° 343° (NNW) 2,150 6.1 -43.0°
Drops below altitude 10° 21:16:18 10° 354° (N) 2,716 6.7 -43.2°
Sets 21:19:04 0° 3° (N) 3,664 7.4 -43.6°
